NOAA NWS Hourly Roundups by Site

Regional Weather Roundup for Omaha, NE

To Select Another Site Choose from List

Select Site:  

000
ASUS43 KOAX 082013
RWRNE

WEATHER ROUNDUP FOR NEBRASKA
NATIONAL WEATHER SERVICE OMAHA NE
200 PM CST WED FEB 08 2023

NOTES: SATELLITE DATA IS BEING USED TO AUGMENT CLOUD COVER ABOVE
       12000 FEET.
       "FAIR" INDICATES FEW OR NO CLOUDS BELOW 12,000 FEET WITH NO
       SIGNIFICANT WEATHER AND/OR OBSTRUCTIONS TO VISIBILITY.


NEZ001>004-019>022-054>056-082100-
NEBRASKA PANHANDLE

CITY           SKY/WX    TMP DP  RH WIND       PRES   REMARKS
SCOTTSBLUFF    SUNNY     46  27  47 W16G25    29.93F
ALLIANCE       SUNNY     38  29  70 W16       29.89F WCI  29
CHADRON        SUNNY     44  29  55 NW13G22   29.91F
GORDON         SUNNY     35  29  78 NW14      29.87S WCI  26
KIMBALL        SUNNY     38  26  60 NW20G33   29.95S WCI  28
SIDNEY         SUNNY     40  27  59 NW21      29.93F WCI  30
$$

NEZ057>060-069>072-079>082-082100-
SOUTHWEST NEBRASKA

CITY           SKY/WX    TMP DP  RH WIND       PRES   REMARKS
NORTH PLATTE   SUNNY     37  26  64 SW12      29.96F WCI  29
GRANT          FAIR      34  30  86 S9        29.96F WCI  26
IMPERIAL       SUNNY     35  26  69 SW12      29.98F WCI  27
LEXINGTON      SUNNY     40  31  68 SW3       29.98F
MCCOOK         SUNNY     44  31  60 W15       29.99F
OGALLALA       SUNNY     35  27  74 W6        29.96F WCI  29
$$

NEZ005>010-023>029-035>040-094-082100-
NORTH CENTRAL NEBRASKA

CITY           SKY/WX    TMP DP  RH WIND       PRES   REMARKS
VALENTINE      SUNNY     36  29  75 SW12      29.89F WCI  28
AINSWORTH      SUNNY     37  29  70 SW10      29.90F WCI  30
BROKEN BOW     SUNNY     39  28  64 SW10      29.95F WCI  32
O`NEILL        SUNNY     38  28  69 S7        29.95F WCI  32
ORD            SUNNY     41  29  62 SW12      29.95F
THEDFORD       SUNNY     38  29  70 S10       29.91F WCI  31
$$

NEZ041-046>049-061>064-073>077-083>087-082100-
SOUTH CENTRAL NEBRASKA

CITY           SKY/WX    TMP DP  RH WIND       PRES   REMARKS
GRAND ISLAND   MOSUNNY   48  28  46 W13       29.99F
AURORA         MOSUNNY   47  33  56 SW9       30.01F
HASTINGS       PTSUNNY   42  31  64 SW7       30.01F
HEBRON         MOSUNNY   50  32  49 SW7       30.03F
HOLDREGE       SUNNY     38  30  71 W5        29.98F WCI  35
KEARNEY        MOSUNNY   43  30  60 W8        29.99F
YORK             N/A     48  34  57 SW12      30.01F
$$

NEZ011>018-030>034-042>045-082100-
NORTHEAST NEBRASKA

CITY           SKY/WX    TMP DP  RH WIND       PRES   REMARKS
NORFOLK        SUNNY     45  33  63 S10       29.98F
ALBION         SUNNY     43  33  67 S7        29.98F
BLAIR          SUNNY     50  33  52 SW9       30.03F
COLUMBUS       SUNNY     48  34  58 S12       30.01F
FREMONT        SUNNY     49  35  58 S8        30.03F
TEKAMAH        SUNNY     47  37  68 S10       30.03F
WAYNE          SUNNY     42  34  73 S12       30.00F
$$

NEZ050>053-065>068-078-088>093-082100-
SOUTHEAST NEBRASKA

CITY           SKY/WX    TMP DP  RH WIND       PRES   REMARKS
LINCOLN        SUNNY     53  29  39 S9        30.04F
OMAHA EPPLEY   MOSUNNY   51  27  39 S12       30.03F
BEATRICE       MOSUNNY   51  26  38 SW5       30.05F
FALLS CITY     CLOUDY    47  23  38 SE3       30.06F
NEBRASKA CITY  MOSUNNY   49  22  34 S8        30.05F
PLATTSMOUTH    MOSUNNY   51  24  34 S10       30.04F
$$

NEZ044-045-051>053-067-082100-
OMAHA AREA

CITY           SKY/WX    TMP DP  RH WIND       PRES   REMARKS
OMAHA EPPLEY   MOSUNNY   51  27  39 S12       30.03F
BLAIR          SUNNY     50  33  52 SW9       30.03F
FREMONT        SUNNY     49  35  58 S8        30.03F
MILLARD        SUNNY     51  27  38 S10       30.03F
OFFUTT AFB     SUNNY     52  26  36 S7        30.05F
PLATTSMOUTH    MOSUNNY   51  24  34 S10       30.04F
WAHOO          SUNNY     50  34  53 S9        30.03F
$$


 

View Past Reports for Omaha, NE.

Products Courtesy of NOAA-NWS
NWS Information Parsing Script by Ken True at Saratoga Weather - Script by SE Lincoln Weather.

This data is offered only as a general guide to local weather conditions. It should not be relied upon in lieu of officially disseminated weather information for determining possible risk to persons or property. This site, including all information contained therein, is made available as is without warranties of any kind, either express or implied. The Vicarage Weather Feed© includes links to other sites for user convenience only. The content of any linked third-party site is not controlled by The Vicarage Weather Feed©. Access to any third-party website through The Vicarage Weather Feed©, regardless of whether or not the third-party site is a linked site, is entirely at the users own risk. Externally sourced content or material is excluded from The Vicarage Weather Feed© copyright and is the copyright and property of the respective provider. Skywarn® and the Skywarn® logo are registered trademarks of the National Oceanic and Atmospheric Administration, used with permission.